Location: Asheville, NC
(35.6000°N, 82.5500°W)
Time: 03:04:29
(UTC-04:00)

BEESAT 2 - Pass Details

Date: 13 March 2018
Orbit: 502 x 533 km, 64.9° (Epoch: 19 June)

Event Time Altitude Azimuth Distance (km) Brightness Sun altitude
Rises 06:20:50 0° 337° (NNW) 2,678 ? -17.6°
Reaches altitude 10° 06:23:07 10° 344° (NNW) 1,782 ? -17.2°
Maximum altitude 06:26:57 44° 57° (ENE) 735 ? -16.4°
Drops below altitude 10° 06:30:44 10° 131° (SE) 1,758 ? -15.7°
Sets 06:32:58 0° 138° (SE) 2,637 ? -15.2°
